Weather History for Imperial, CA

Change the Weather History Date:

Sunday, February 23, 2014

  Actual Average Record
Temperature  
Mean Temperature 62 °F -  
Max Temperature 79 °F 76 °F 88 °F (1954)
Min Temperature 46 °F 46 °F 33 °F (1953)
Degree Days  
Heating Degree Days 2    
Growing Degree Days 12 (Base 50)    
Moisture  
Dew Point 34 °F    
Average Humidity 37    
Maximum Humidity 63    
Minimum Humidity 15    
Precipitation  
Precipitation 0.00 in - - ()
Sea Level Pressure  
Sea Level Pressure 29.90 in    
Wind  
Wind Speed 2 mph (SSE)    
Max Wind Speed 7 mph    
Max Gust Speed -    
Visibility 10 miles    
Events      
Averages and records for this station are not official NWS values.
T = Trace of Precipitation, MM = Missing Value Source: NWS Daily Summary

Daily Weather History Graph

Daily Weather History Graph

Search for Another Location

Airport:

Trip Planner

Search our weather history database for the weather conditions in past years. The results will help you decide how hot, cold, wet, or windy it might be!

Date:

Astronomy

Feb. 23, 2014 Rise Set
Actual Time 6:16 AM PST 5:34 PM PST
Civil Twilight 5:52 AM PST 5:59 PM PST
Nautical Twilight 5:23 AM PST 6:28 PM PST
Astronomical Twilight 4:54 AM PST 6:56 PM PST
Moon 1:10 AM PST (2/23) 11:50 AM PST (2/23)
Length of Visible Light 12h 07m
Length of Day
11h 17m
Last Quarter, 38% of the Moon is Illuminated
Feb 23
Last Quarter
Mar 1
New
Mar 8
First Quarter
Mar 16
Full
Mar 23
Last Quarter

Hourly Weather History & Observations

Time (PST) Temp. Dew Point Humidity Pressure Visibility Wind Dir Wind Speed Gust Speed Precip Events Conditions
12:53 AM 52.0 °F 35.1 °F 53% 29.87 in 10.0 mi Calm Calm - N/A   Clear
1:53 AM 51.1 °F 34.0 °F 52% 29.87 in 10.0 mi NNW 3.5 mph - N/A   Clear
2:53 AM 50.0 °F 33.1 °F 52% 29.87 in 10.0 mi Calm Calm - N/A   Clear
3:53 AM 48.0 °F 34.0 °F 58% 29.88 in 10.0 mi WSW 3.5 mph - N/A   Clear
4:53 AM 48.0 °F 36.0 °F 63% 29.89 in 10.0 mi Calm Calm - N/A   Clear
5:53 AM 46.9 °F 34.0 °F 61% 29.91 in 10.0 mi WSW 4.6 mph - N/A   Clear
6:53 AM 48.9 °F 28.0 °F 44% 29.93 in 10.0 mi SW 3.5 mph - N/A   Clear
7:53 AM 54.0 °F 32.0 °F 43% 29.95 in 10.0 mi West 3.5 mph - N/A   Clear
8:53 AM 62.1 °F 39.0 °F 43% 29.96 in 10.0 mi West 3.5 mph - N/A   Clear
9:53 AM 69.1 °F 30.9 °F 24% 29.97 in 10.0 mi Calm Calm - N/A   Clear
10:53 AM 73.0 °F 36.0 °F 26% 29.95 in 10.0 mi East 3.5 mph - N/A   Clear
11:53 AM 75.9 °F 36.0 °F 23% 29.93 in 10.0 mi Calm Calm - N/A   Clear
12:53 PM 78.1 °F 30.9 °F 18% 29.90 in 10.0 mi East 3.5 mph - N/A   Clear
1:53 PM 79.0 °F 28.0 °F 15% 29.88 in 10.0 mi Calm Calm - N/A   Clear
2:53 PM 79.0 °F 28.9 °F 16% 29.87 in 10.0 mi ESE 4.6 mph - N/A   Clear
3:53 PM 79.0 °F 30.0 °F 17% 29.86 in 10.0 mi East 5.8 mph - N/A   Clear
4:53 PM 78.1 °F 30.9 °F 18% 29.87 in 10.0 mi ESE 4.6 mph - N/A   Clear
5:53 PM 73.9 °F 33.1 °F 22% 29.87 in 10.0 mi SE 3.5 mph - N/A   Clear
6:53 PM 69.1 °F 35.1 °F 29% 29.88 in 10.0 mi Calm Calm - N/A   Clear
7:53 PM 64.0 °F 36.0 °F 35% 29.89 in 10.0 mi Calm Calm - N/A   Clear
8:53 PM 63.0 °F 34.0 °F 34% 29.91 in 10.0 mi NE 3.5 mph - N/A   Clear
9:53 PM 60.1 °F 35.1 °F 39% 29.92 in 10.0 mi SE 6.9 mph - N/A   Clear
10:53 PM 57.0 °F 37.0 °F 47% 29.91 in 10.0 mi Calm Calm - N/A   Clear
11:53 PM 55.9 °F 37.0 °F 49% 29.91 in 10.0 mi NW 3.5 mph - N/A   Clear